TimeAST,TemperatureF,Dew PointF,Humidity,Sea Level PressureIn,VisibilityMPH,Wind Direction,Wind SpeedMPH,Gust SpeedMPH,PrecipitationIn,Events,Conditions,WindDirDegrees,DateUTC
12:00 AM,78.8,69.8,74,29.95,6.2,East,12.7,-,N/A,,Scattered Clouds,80,2012-12-18 04:00:00
1:00 AM,78.8,71.6,78,29.95,6.2,ENE,13.8,-,N/A,,Scattered Clouds,70,2012-12-18 05:00:00
2:00 AM,79,71,72,29.95,19,East,15.0,,,Rain,Light Rain Showers,100,2012-12-18 06:00:00
2:00 AM,78.8,71.6,78,29.95,6.2,East,15.0,-,N/A,Rain,Light Rain Showers,100,2012-12-18 06:00:00
3:00 AM,78.8,71.6,78,29.92,6.2,East,12.7,-,N/A,,Scattered Clouds,90,2012-12-18 07:00:00
4:00 AM,78.8,71.6,78,29.92,6.2,ENE,13.8,-,N/A,,Scattered Clouds,70,2012-12-18 08:00:00
5:00 AM,79,71,69,29.94,19,ENE,13.8,,,,Partly Cloudy,70,2012-12-18 09:00:00
5:00 AM,78.8,71.6,78,29.92,6.2,ENE,13.8,-,N/A,,Scattered Clouds,70,2012-12-18 09:00:00
6:00 AM,78.8,69.8,74,29.95,6.2,East,13.8,-,N/A,,Mostly Cloudy,80,2012-12-18 10:00:00
7:00 AM,78.8,69.8,74,29.95,6.2,ENE,12.7,-,N/A,,Mostly Cloudy,70,2012-12-18 11:00:00
8:00 AM,80,70,63,29.99,25,ENE,13.8,,,,Partly Cloudy,70,2012-12-18 12:00:00
8:00 AM,80.6,69.8,70,29.98,6.2,ENE,13.8,-,N/A,,Scattered Clouds,70,2012-12-18 12:00:00
9:00 AM,80.6,69.8,70,30.01,6.2,East,12.7,-,N/A,,Scattered Clouds,90,2012-12-18 13:00:00
10:00 AM,80.6,68.0,65,30.01,6.2,East,12.7,-,N/A,,Scattered Clouds,80,2012-12-18 14:00:00
11:00 AM,83,66,48,30.02,25,East,16.1,,,,Mostly Cloudy,80,2012-12-18 15:00:00
11:00 AM,84.2,66.2,55,30.01,6.2,East,16.1,-,N/A,,Scattered Clouds,80,2012-12-18 15:00:00
12:00 PM,82.4,68.0,62,29.98,6.2,East,13.8,-,N/A,,Scattered Clouds,100,2012-12-18 16:00:00
1:00 PM,82.4,68.0,62,29.95,6.2,East,11.5,-,N/A,,Partly Cloudy,100,2012-12-18 17:00:00
2:00 PM,83,67,49,29.95,37,East,11.5,,,,Scattered Clouds,100,2012-12-18 18:00:00
2:00 PM,84.2,66.2,55,29.95,6.2,East,11.5,-,N/A,,Partly Cloudy,100,2012-12-18 18:00:00
3:00 PM,82.4,68.0,62,29.92,6.2,East,10.4,-,N/A,,Partly Cloudy,90,2012-12-18 19:00:00
4:00 PM,82.4,69.8,66,29.92,6.2,East,10.4,-,N/A,,Scattered Clouds,80,2012-12-18 20:00:00
5:00 PM,81,69,59,29.94,44,East,6.9,,,,Scattered Clouds,90,2012-12-18 21:00:00
5:00 PM,80.6,69.8,70,29.92,6.2,East,6.9,-,N/A,,Partly Cloudy,100,2012-12-18 21:00:00
6:00 PM,80.6,69.8,70,29.95,6.2,ENE,6.9,-,N/A,,Partly Cloudy,70,2012-12-18 22:00:00
7:00 PM,78.8,69.8,74,29.95,6.2,East,8.1,-,N/A,,Partly Cloudy,80,2012-12-18 23:00:00
8:00 PM,79,71,69,29.98,40,East,6.9,,,,Scattered Clouds,90,2012-12-19 00:00:00
8:00 PM,78.8,71.6,78,29.98,6.2,East,6.9,-,N/A,,Partly Cloudy,90,2012-12-19 00:00:00
10:00 PM,78.8,71.6,78,29.98,6.2,ESE,6.9,-,N/A,,Partly Cloudy,110,2012-12-19 02:00:00
11:00 PM,79,70,66,29.98,22,ESE,8.1,,,,Scattered Clouds,120,2012-12-19 03:00:00
11:00 PM,78.8,69.8,74,29.98,6.2,ESE,8.1,-,N/A,,Partly Cloudy,120,2012-12-19 03:00:00